Location: Bremgarten
(46.9780°N, 7.4385°E)
Time: 01:40:26
(UTC+00:00)

Daily predictions for brighter satellites

Satellite Brightness Start Highest point End
(mag) Time Altitude Azimuth Time Altitude Azimuth Time Altitude Azimuth
ATLAS 2AS CENTAUR R/B 4.0 02:28:20 38° ENE 02:28:20 38° ENE 02:33:40 10° ESE
Lacrosse 5 4.3 02:57:41 17° NE 02:57:41 17° NE 02:58:51 10° NE
USA 234 4.3 02:50:40 10° NE 02:54:47 37° NNE 02:54:47 37° NNE
ATLAS 5 CENTAUR R/B 4.4 03:07:21 70° W 03:08:31 74° SW 03:44:42 10° SSE
COSMOS 2455 3.7 03:16:30 43° ESE 03:16:30 43° ESE 03:20:33 10° SE
CZ-2C R/B 4.1 03:12:19 10° NNE 03:16:09 29° E 03:16:09 29° E
Cosmos 2082 Rocket 4.0 03:30:54 21° N 03:30:54 21° N 03:32:53 10° NNE
ATLAS CENTAUR R/B 3.3 03:28:10 34° E 03:28:10 34° E 03:31:54 10° NE
SL-4 R/B 3.8 03:36:54 36° ESE 03:36:54 36° ESE 03:39:46 10° ESE
NOSS 3-4 (A) 4.0 03:36:44 53° N 03:38:22 68° NE 03:45:58 10° SE
NOSS 3-4 (C) 4.0 03:36:49 52° N 03:38:28 67° NE 03:46:04 10° SE
NOSS 3-3 (A) 4.0 03:48:21 65° NNW 03:48:21 65° NNW 03:54:31 10° NE
NOSS 3-3 (C) 4.0 03:48:26 66° NNW 03:48:26 66° NNW 03:54:38 10° NE
Cosmos 2360 Rocket 3.0 03:50:28 30° N 03:52:55 47° NE 03:58:22 10° SE
Cosmos 1328 Rocket 4.4 03:55:27 43° NE 03:56:01 46° ENE 04:00:09 10° SSE
CZ-4C R/B 4.2 03:57:37 18° NNW 03:58:26 19° N 04:03:07 10° NE
SL-16 R/B 2.1 04:00:21 70° SSW 04:00:21 70° SSW 04:05:28 10° SSE
BREEZE-M DEB (TANK) 4.1 03:57:37 40° WNW 04:02:27 81° SSW 04:07:07 10° ESE
Cosmos 2151 4.4 04:07:26 30° NNE 04:07:26 30° NNE 04:09:39 10° NNE
STARLINK-35 4.3 04:06:30 54° E 04:06:30 54° E 04:09:49 10° ENE
Cosmos 2322 Rocket 2.0 04:05:40 75° WNW 04:05:59 78° WSW 04:11:39 10° SSE
STARLINK-26 4.3 04:07:18 51° ENE 04:07:18 51° ENE 04:10:26 10° ENE
STARLINK-51 4.2 04:08:05 56° E 04:08:05 56° E 04:11:29 10° ENE
Cosmos 1459 Rocket 4.0 04:02:20 10° S 04:08:33 82° E 04:14:54 10° N
STARLINK-30 4.1 04:09:41 59° E 04:09:41 59° E 04:13:08 10° ENE
COBE Rocket 4.1 04:04:40 10° SSE 04:09:46 75° ENE 04:13:09 21° N
STARLINK-33 4.0 04:11:18 62° E 04:11:18 62° E 04:14:50 10° ENE
H-2A R/B 4.1 04:07:18 10° N 04:09:23 27° N 04:09:23 27° N
STARLINK-50 3.9 04:12:54 64° ENE 04:12:54 64° ENE 04:16:29 10° ENE
Meteor 2-20 Rocket 4.3 04:09:54 29° NNW 04:13:10 67° W 04:19:15 10° S
Cosmos 2298 Rocket 4.2 04:09:12 16° S 04:13:23 73° ESE 04:18:41 10° NNE
STARLINK-56 3.8 04:16:05 70° ENE 04:16:05 70° ENE 04:19:48 10° ENE
Starlink (trailer) 3.7 04:17:39 73° ENE 04:17:39 73° ENE 04:21:27 10° ENE
ATLAS 2AS CENTAUR R/B 2.8 04:15:49 43° WNW 04:18:15 64° WSW 04:25:10 10° SSE
STARLINK-38 3.7 04:19:18 76° ENE 04:19:18 76° ENE 04:23:08 10° ENE
ALOS 4.2 04:14:54 10° NNE 04:19:01 30° E 04:23:07 10° SSE
STARLINK-65 3.6 04:20:52 78° ENE 04:20:52 78° ENE 04:24:47 10° ENE
Cosmos 1408 Rocket 3.7 04:18:03 10° S 04:22:20 70° E 04:26:41 10° NNE
Cosmos 2016 Rocket 4.2 04:16:42 10° S 04:22:56 74° E 04:29:18 10° NNE
STARLINK-69 3.5 04:25:44 83° N 04:25:44 83° N 04:29:49 10° ENE
STARLINK-66 3.5 04:27:17 83° NNW 04:27:17 83° NNW 04:31:28 10° ENE
STARLINK-41 3.4 04:28:52 81° NW 04:28:56 81° NNW 04:33:06 10° ENE
STARLINK-64 3.4 04:30:29 78° NW 04:30:37 79° NNW 04:34:46 10° ENE
STARLINK-70 3.4 04:32:05 75° WNW 04:32:17 78° NNW 04:36:27 10° ENE
STARLINK-68 3.4 04:33:50 71° WNW 04:34:04 74° NNW 04:38:13 10° ENE
STARLINK-58 3.4 04:35:15 69° WNW 04:35:34 75° NNW 04:39:44 10° ENE
STARLINK-62 3.5 04:37:01 66° WNW 04:37:23 72° NNW 04:41:33 10° ENE
Lacrosse 5 3.0 04:36:54 27° NNW 04:37:40 28° N 04:42:02 10° NE
SJ 16-02 3.5 04:41:06 13° N 04:41:06 13° N 04:41:47 10° N
Cosmos 1606 3.3 04:35:01 13° N 04:38:22 55° E 04:42:07 10° SSE
STARLINK-63 3.5 04:38:30 64° WNW 04:38:57 72° NNW 04:43:07 10° ENE
USA 234 4.1 04:33:19 10° ENE 04:39:11 37° N 04:42:07 25° NW
Cosmos 2322 4.1 04:35:07 15° NNW 04:39:56 63° ENE 04:45:32 10° SE
STARLINK 3.5 04:39:49 62° W 04:40:24 75° NNW 04:44:33 10° ENE
Cosmos 1766 Rocket 3.9 04:41:26 43° NW 04:41:26 43° NW 04:44:55 10° N
Cosmos 2219 Rocket 3.3 04:36:19 10° NNW 04:41:40 41° NE 04:47:00 10° SE
STARLINK-72 3.5 04:41:34 59° W 04:42:11 71° NNW 04:46:20 10° ENE
Cosmos 1937 Rocket 4.3 04:43:39 31° NW 04:43:39 31° NW 04:47:32 10° N
BREEZE-M DEB (TANK) 4.2 04:44:07 22° SSW 04:44:07 22° SSW 04:47:43 10° SSE
CZ-4B R/B 4.5 04:39:19 10° NNE 04:44:29 42° E 04:49:42 10° S
SJ-12 4.4 04:40:24 10° NNE 04:44:32 63° ESE 04:48:38 10° S
STARLINK-48 4.1 04:44:48 38° NNW 04:44:59 38° NNW 04:48:41 10° ENE
Cosmos 1825 2.0 04:41:14 10° S 04:45:00 84° W 04:48:48 10° N
STARLINK-59 3.6 04:44:54 54° WNW 04:45:38 67° NNW 04:49:46 10° ENE
STARLINK-57 3.6 04:46:26 51° W 04:47:14 65° NNW 04:51:23 10° ENE
Cosmos 2100 Rocket 4.1 04:42:05 10° SSW 04:48:02 49° WNW 04:54:01 10° N
STARLINK-52 4.3 04:48:35 31° N 04:49:05 33° N 04:52:18 10° ENE
Cosmos 2333 Rocket 3.1 04:44:52 10° NNW 04:50:29 49° NE 04:56:04 10° SE
STARLINK-28 3.6 04:49:43 47° W 04:50:39 63° NNW 04:54:46 10° ENE
Cosmos 1933 3.2 04:47:18 14° N 04:50:45 86° W 04:54:45 10° S
Tsikada Rocket 4.0 04:44:39 10° N 04:51:05 89° WSW 04:57:23 10° S
SL-08 R/B 4.3 04:45:11 10° S 04:51:17 83° W 04:57:25 10° N
Lacrosse 5 rocket 1.5 04:50:17 38° NNW 04:51:20 53° NNE 04:54:51 10° ESE
STARLINK-75 3.7 04:51:00 45° WNW 04:51:56 58° NNW 04:56:02 10° ENE
Abrixas rocket 1.8 04:52:40 82° W 04:52:46 88° NNW 04:55:48 10° ENE
STARLINK-53 3.7 04:51:50 45° W 04:52:52 61° NNW 04:57:00 10° ENE
COSMO-SKYMED 1 2.5 04:49:28 10° S 04:53:46 69° WSW 04:57:49 12° NNW
STARLINK-54 3.7 04:52:53 44° W 04:53:57 60° NNW 04:58:04 10° ENE
CZ-2C R/B 2.8 04:50:26 10° N 04:54:49 35° WNW 04:55:30 33° W
STARLINK-37 3.7 04:57:04 39° W 04:58:19 57° NNW 05:02:25 10° ENE
Meteor 1-31 Rocket 4.2 04:54:58 10° N 04:56:43 22° NNW 04:56:43 22° NNW
STARLINK-55 3.7 04:57:34 39° W 04:58:52 58° NNW 05:02:58 10° ENE
USA 116 3.4 04:56:04 10° SSE 04:59:27 86° ENE 05:03:14 10° NNW
COSMOS 2455 3.9 04:59:42 24° WSW 04:59:59 24° WSW 05:04:38 10° SSW
STARLINK-34 3.8 04:59:17 37° W 05:00:39 56° NNW 05:04:44 10° ENE
STARLINK-29 4.2 05:00:31 29° NNW 05:01:33 36° NNE 05:04:48 10° E
STARLINK-81 3.7 05:00:37 36° W 05:02:05 58° NNW 05:06:12 10° ENE
STARLINK-24 3.8 05:00:52 35° W 05:02:19 56° NNW 05:06:25 10° ENE
Cosmos 1484 Rocket 2.8 04:59:16 10° N 05:03:14 58° WNW 05:07:10 10° SSW
MOS 1-B 4.3 04:58:01 10° NNE 05:03:52 83° WNW 05:09:38 10° SSW
Cosmos 1125 Rocket 3.4 04:59:18 10° SSW 05:04:34 85° WNW 05:09:52 10° NNE
STARLINK-77 3.8 05:03:46 33° W 05:05:22 56° NNW 05:09:29 10° ENE
ATLAS CENTAUR R/B 2.2 05:04:26 27° W 05:06:30 41° NW 05:10:58 10° NNE
FALCON 9 DEB 4.1 05:05:29 27° NNW 05:06:44 38° NNE 05:09:58 10° E
STARLINK-25 3.8 05:05:21 32° W 05:07:02 55° NNW 05:11:09 10° ENE
Cosmos 1408 3.6 05:08:21 27° NW 05:08:21 27° NW 05:10:40 10° N
STARLINK-71 3.9 05:07:15 31° W 05:08:56 52° NNW 05:13:00 10° ENE
Cosmos 1802 Rocket 4.3 05:03:22 10° SSW 05:09:30 46° WNW 05:15:38 10° N
STARLINK-79 3.8 05:08:36 29° W 05:10:25 53° NNW 05:14:30 10° ENE
STARLINK-78 3.8 05:10:12 28° W 05:12:05 52° NNW 05:16:09 10° ENE
Cosmos 2082 Rocket 4.0 05:12:46 12° NW 05:12:56 12° NNW 05:15:19 10° N
Cosmos 2150 Rocket 4.4 05:08:00 10° SW 05:13:10 43° WNW 05:18:19 10° N
Cosmos 1782 3.4 05:09:49 10° N 05:13:46 59° ENE 05:17:41 10° SSE
Cosmos 372 Rocket 4.3 05:09:13 10° SW 05:14:03 41° WNW 05:18:55 10° N
SL-4 R/B 3.6 05:12:32 21° WSW 05:14:17 26° SW 05:18:15 10° SSE
STARLINK-49 3.9 05:13:22 26° W 05:15:24 51° NNW 05:19:28 10° ENE
STARLINK-27 3.9 05:15:00 25° W 05:17:05 50° NNW 05:21:08 10° ENE
STARLINK-74 3.9 05:16:35 24° W 05:18:45 50° NNW 05:22:48 10° ENE
PAYLOAD B 4.1 05:13:34 10° NNE 05:19:05 79° WNW 05:24:35 10° SSW
Cosmos 1151 Rocket 4.0 05:17:40 21° NW 05:19:13 26° W 05:22:49 10° SW
Meteor PRIRODA 4.5 05:16:24 10° N 05:19:34 28° WNW 05:22:42 10° SW
STARLINK-39 3.9 05:18:09 24° W 05:20:24 49° NNW 05:24:27 10° ENE
STARLINK 4.0 05:19:47 23° W 05:22:05 48° NNW 05:26:08 10° ENE
STARLINK-42 4.0 05:20:28 22° W 05:22:46 47° NNW 05:26:48 10° ENE
CZ-4B DEB 4.2 05:17:33 10° N 05:22:58 66° WNW 05:28:24 10° SSW
Cosmos 1437 3.3 05:20:18 10° SW 05:23:03 30° WNW 05:25:49 10° N
NOAA 6 4.0 05:18:23 10° NNE 05:23:33 89° ESE 05:28:39 10° SSW
Meteor 1-26 Rocket 4.2 05:19:48 10° NNW 05:25:26 64° W 05:30:53 10° S
STARLINK-21 4.0 05:23:01 21° W 05:25:29 47° NNW 05:29:31 10° ENE
Cosmos 1633 4.3 05:23:26 10° SSE 05:26:45 35° E 05:30:07 10° NNE
STARLINK-45 4.1 05:24:56 20° W 05:27:25 44° NNW 05:31:24 10° ENE
COSMOS 2487 3.8 05:28:39 19° NW 05:28:39 19° NW 05:31:05 10° N
Cosmos 1400 Rocket 3.0 05:24:36 10° NNW 05:28:31 47° W 05:32:21 10° S
Cosmos 2233 Rocket 4.0 05:22:21 10° SSW 05:28:38 72° W 05:35:00 10° N
STARLINK-76 4.1 05:27:48 19° W 05:30:29 45° NNW 05:34:29 10° ENE
Timation 2 Rocket 4.1 05:25:00 10° SSW 05:31:00 75° ESE 05:36:59 10° NNE
Cosmos 2061 Rocket 4.5 05:25:22 10° SW 05:31:02 36° WNW 05:36:42 10° N
STARLINK 4.1 05:29:23 18° W 05:32:08 44° NNW 05:36:08 10° ENE
STARLINK-32 4.1 05:30:59 18° W 05:33:47 44° NNW 05:37:47 10° ENE
STARLINK-40 4.1 05:32:34 17° W 05:35:27 43° NNW 05:39:26 10° ENE
Okean O Rocket 1.6 05:31:24 10° N 05:35:42 62° WNW 05:40:00 10° SSW
Cosmos 2360 Rocket 3.0 05:32:17 12° NW 05:36:42 31° WSW 05:41:35 10° SSW
Cosmos 2228 Rocket 3.6 05:32:38 10° NNW 05:36:55 40° W 05:41:11 10° SSW
Gbstr 26 Del rocket 3.4 05:34:24 17° WNW 05:37:00 40° N 05:40:35 10° ENE
STARLINK-44 4.1 05:34:11 16° W 05:37:08 43° NNW 05:41:07 10° ENE
STARLINK-36 4.2 05:35:48 16° W 05:38:50 42° NNW 05:42:48 10° ENE
STARLINK-61 4.3 05:37:06 16° WNW 05:39:54 36° N 05:43:41 10° ENE
Cosmos 1707 Rocket 3.9 05:36:14 10° N 05:40:43 72° E 05:45:10 10° SSE
Helios 1A Rocket 3.0 05:37:11 10° N 05:41:11 51° WNW 05:45:07 10° SSW
STARLINK-80 4.5 05:39:00 15° WNW 05:41:44 32° N 05:45:13 10° ENE
COSMOS 2428 2.7 05:36:39 10° NNW 05:42:23 78° WSW 05:48:06 10° SSE
SL-16 R/B 3.9 05:42:17 11° W 05:42:54 12° W 05:44:44 10° WSW
Cosmos 2237 Rocket 3.1 05:37:26 10° NNW 05:42:56 47° NE 05:48:22 10° SE
Cosmos 1805 Rocket 3.4 05:40:32 10° SSW 05:44:51 78° W 05:49:13 10° N
Cosmos 1833 4.5 05:39:33 10° SW 05:44:55 45° NW 05:50:20 10° NNE
STARLINK-35 4.2 05:42:10 14° W 05:45:29 41° NNW 05:49:27 10° ENE
STARLINK-26 4.3 05:42:44 14° WNW 05:45:58 39° N 05:49:50 10° ENE
Cosmos 1743 Rocket 4.2 05:42:09 10° SW 05:46:00 31° WNW 05:49:53 10° N
STARLINK-51 4.2 05:43:46 13° W 05:47:10 40° NNW 05:51:07 10° ENE
STARLINK-43 4.4 05:45:32 12° NW 05:48:35 34° N 05:52:02 10° ENE
BREEZE-M DEB (TANK) 1.3 05:47:00 15° WNW 05:48:40 54° N 05:50:47 10° E
STARLINK-30 4.3 05:45:21 13° W 05:48:50 40° NNW 05:52:46 10° ENE
Cosmos 2322 Rocket 3.9 05:47:33 11° W 05:49:03 12° W 05:51:11 10° WSW
STARLINK-46 4.1 05:47:11 13° W 05:49:13 26° SW 05:51:46 10° SSE
CZ-4C R/B 4.2 05:43:52 10° NNW 05:49:22 26° NNE 05:55:34 10° ENE
STARLINK-33 4.3 05:46:59 12° W 05:50:32 40° NNW 05:54:28 10° ENE
STARLINK-50 4.3 05:48:35 12° W 05:52:13 39° N 05:56:08 10° ENE
METEOR-M 4.5 05:48:36 10° N 05:53:37 42° WNW 05:58:37 10° SW
STARLINK-56 4.3 05:51:46 11° W 05:55:32 39° N 05:59:27 10° ENE
ALOS 2.9 05:52:15 10° N 05:56:27 34° WNW 06:00:38 10° SW
Starlink (trailer) 4.3 05:53:20 10° W 05:57:11 38° N 06:01:06 10° ENE
Radarsat Rocket 3.9 05:51:34 10° NNE 05:57:24 81° WNW 06:03:26 10° SSW
STARLINK-38 4.3 05:55:00 10° W 05:58:53 38° N 06:02:48 10° ENE
Cosmos 1464 Rocket 4.2 05:54:00 10° S 06:00:18 83° E 06:06:34 10° N
SMAP 3.2 05:55:40 10° NNE 06:00:22 82° ESE 06:05:02 10° SSW
STARLINK-65 4.4 05:56:39 10° W 06:00:33 38° N 06:04:27 10° ENE
STARLINK-60 3.1 05:57:27 10° WNW 06:00:49 87° NNE 06:04:11 10° ESE
Feng Yun 1-1 Rocket 4.4 05:59:02 10° NNE 06:04:28 79° ESE 06:09:57 10° SSW
FENGYUN 3A 4.2 05:59:38 10° N 06:04:34 37° WNW 06:09:28 10° SW
AQUARIUS 4.3 06:00:19 10° NNE 06:04:51 85° ESE 06:09:21 10° SSW
STARLINK-69 4.4 06:01:44 10° WNW 06:05:37 37° N 06:09:31 10° ENE
Cosmos 1818 3.7 06:00:29 10° SW 06:05:57 89° SE 06:11:27 10° NE
STARLINK-66 4.4 06:03:23 10° WNW 06:07:16 37° N 06:11:09 10° ENE
ATLAS 2AS CENTAUR R/B 4.4 06:04:31 10° WNW 06:07:37 13° W 06:10:39 10° SW
STARLINK-41 4.4 06:05:03 10° WNW 06:08:55 37° N 06:12:48 10° ENE
Cosmos 1980 3.9 06:03:17 10° NNW 06:08:58 76° ENE 06:14:39 10° SSE
Meteor 1-10 Rocket 4.2 06:03:45 10° NNW 06:09:22 74° W 06:15:02 10° S
Cosmos 1633 Rocket 3.1 06:05:43 10° S 06:10:03 85° E 06:14:28 10° N
STARLINK-64 4.4 06:06:44 10° WNW 06:10:36 36° N 06:14:29 10° ENE
Cosmos 1072 Rocket 4.5 06:06:05 10° SSW 06:12:13 76° W 06:18:22 10° N
ADEOS Rocket 3.6 06:07:39 10° SSE 06:15:24 83° WSW 06:22:40 10° NNW
